Probability
71 45 35 26 3 0 0 0 0 0 0 0 0 0 0 0 0 0 0 13 19 26 48 68 68 65 61 58 55 58 68 65 45 45 42 42 42 45 42 45 45 45 52 52 48 58 65 68 61
45 68 35 3 0 0 0 0 0 0 0 0 0 0 0 0 0 0 16 16 19 32 35 52 65 58 55 58 58 55 55 39 42 42 35 35 32 35 32 29 29 39 42 42 48 48 52 61 68
61 71 35 6 0 0 0 0 0 0 0 0 0 0 0 0 0 6 13 16 6 19 35 58 58 52 55 48 39 39 39 35 35 29 29 26 26 23 26 26 29 32 35 32 32 42 42 42 39
61 26 10 3 0 0 0 0 0 0 0 0 0 0 0 0 3 10 13 16 19 23 35 48 52 52 42 35 39 39 35 32 29 19 19 19 19 19 16 16 13 16 19 16 13 19 26 23 26
29 10 0 0 0 0 0 0 0 3 0 0 0 0 0 3 6 10 16 13 16 19 26 42 52 42 39 35 35 29 26 23 13 13 16 16 16 16 13 10 6 13 10 6 10 6 6 19 23
6 3 0 0 0 0 0 0 3 0 0 0 0 0 0 3 6 6 6 3 3 13 23 32 39 35 23 23 29 26 19 19 13 13 13 13 13 10 6 6 3 3 3 3 3 3 6 13 23
6 0 0 0 0 0 0 0 0 0 0 0 0 0 0 0 6 3 3 0 3 13 10 13 13 23 19 23 16 13 13 10 10 13 13 10 10 6 0 3 0 0 3 0 0 6 3 10 19
3 0 0 0 0 0 0 0 3 0 0 0 0 0 0 0 0 0 0 0 3 3 6 10 10 3 3 6 13 16 13 13 10 10 6 10 6 0 3 3 3 0 0 0 0 0 3 19 23
0 0 0 0 0 0 3 3 0 0 0 3 0 0 0 0 0 0 0 0 0 0 3 3 0 0 0 0 6 13 16 13 10 3 6 6 0 0 0 3 3 0 0 0 0 0 0 3 10
0 0 0 0 0 0 0 3 0 0 0 3 0 0 0 3 3 0 0 0 0 0 0 0 0 0 0 0 0 0 0 0 0 0 0 0 0 0 0 0 3 0 0 3 6 3 3 0 0
3 0 0 3 0 0 3 3 0 0 0 3 3 0 0 0 0 0 0 0 0 0 0 0 0 0 0 0 0 0 0 0 0 0 0 0 0 0 0 0 0 0 0 0 0 0 0 0 0
0 0 3 3 6 0 0 3 0 0 0 0 3 0 0 0 0 0 0 0 0 0 0 0 0 0 0 0 0 0 0 0 0 0 0 0 0 0 0 0 0 0 0 0 0 0 0 0 0
0 0 6 0 0 0 3 3 3 3 0 6 3 3 0 0 0 0 0 0 0 0 0 0 0 0 0 0 0 0 0 0 0 0 0 0 0 0 0 0 0 0 0 0 0 0 0 0 0
0 3 0 0 0 0 3 3 3 3 3 3 6 3 3 0 0 0 0 0 0 0 0 0 0 0 0 0 0 0 0 0 0 0 0 0 0 0 0 0 0 0 0 0 0 0 0 0 0
0 0 0 0 0 0 0 0 3 0 0 3 3 0 0 0 0 0 0 0 0 0 0 0 0 0 0 0 0 0 0 0 0 0 0 0 0 0 0 0 0 0 0 0 0 0 0 0 0
0 0 0 0 0 0 0 0 0 0 3 3 0 0 0 0 0 0 0 0 0 0 0 0 0 0 0 0 0 0 0 0 0 0 0 0 0 0 0 0 0 0 0 0 0 0 0 0 0
0 0 0 0 0 0 0 0 0 3 0 0 0 0 0 0 0 0 0 0 0 0 0 0 0 0 0 0 0 0 0 0 0 0 0 0 0 0 0 0 0 0 0 0 0 0 0 0 0
0 0 0 0 0 0 0 0 0 0 0 0 0 0 0 0 0 0 0 0 0 0 0 0 0 0 0 0 0 0 0 0 0 0 0 0 0 0 0 0 0 0 0 0 0 0 0 0 0
0 0 0 0 0 0 0 0 0 0 0 0 0 0 0 0 0 0 0 0 0 0 0 0 0 0 0 0 0 0 0 0 0 0 0 0 0 0 0 0 0 0 0 0 0 0 0 0 0
0 0 0 0 0 0 0 0 0 0 0 0 0 0 0 0 0 0 0 0 0 0 0 0 0 0 0 0 0 0 0 0 0 0 0 0 0 0 0 0 0 0 0 0 0 0 0 0 0
0 0 0 0 0 0 0 0 0 0 0 0 0 0 0 0 0 0 0 0 0 0 0 0 0 0 0 0 0 0 0 0 0 0 0 0 0 0 0 0 0 0 0 0 0 0 0 0 0
0 0 0 0 0 0 0 0 0 0 0 0 0 0 0 0 0 0 0 0 0 0 0 0 0 0 0 0 0 0 0 0 0 0 0 0 0 0 0 0 0 0 0 0 0 0 0 0 0
0 0 0 0 0 0 0 0 0 0 0 0 0 0 0 0 0 0 0 0 0 0 0 0 0 0 0 0 0 0 0 0 0 0 0 0 0 0 0 0 0 0 0 0 0 0 0 0 0
0 0 0 0 0 0 0 0 0 0 0 0 0 0 0 0 0 0 0 0 0 0 0 0 0 0 0 0 0 0 0 0 0 0 0 0 0 0 0 0 0 0 0 0 0 0 0 0 0
0 0 0 0 0 0 0 0 0 0 0 0 0 0 0 0 0 0 0 0 0 0 0 0 0 0 0 0 0 0 0 0 0 0 0 0 0 0 0 0 0 0 0 0 0 0 0 0 0
0 0 0 0 0 0 0 0 0 0 0 0 0 0 0 0 0 0 0 0 0 0 0 0 0 0 0 0 0 0 0 0 0 0 0 0 0 0 0 0 0 0 0 0 0 0 0 0 0
0 0 0 0 0 0 0 0 0 0 0 0 0 0 0 0 0 0 0 0 0 0 0 0 0 0 0 0 0 0 0 0 0 0 0 0 0 0 0 0 0 0 0 0 0 0 0 0 0
0 0 0 0 0 0 0 0 0 0 0 0 0 0 0 0 0 0 0 0 0 0 0 0 0 0 0 0 0 0 0 0 0 0 0 0 0 0 0 0 0 0 0 0 0 0 0 0 0
0 0 0 0 0 0 0 0 0 0 0 0 0 0 0 0 0 0 0 0 0 0 0 0 0 0 0 0 0 0 0 0 0 0 0 0 0 0 0 0 0 0 0 0 0 0 0 0 0
0 0 0 0 0 0 0 0 0 0 0 0 0 0 0 0 0 0 0 0 0 0 0 0 0 0 0 0 0 0 0 0 0 0 0 0 0 0 0 0 0 0 0 0 0 0 0 0 0
Height
5874 5874 5874 5875 5876 5875 5874 5875 5874 5875 5875 5875 5875 5876 5876 5877 5879 5880 5878 5878 5878 5879 5879 5879 5880 5880 5880 5880 5880 5880 5879 5879 5878 5877 5877 5876 5875 5874 5873 5872 5871 5870 5870 5869 5869 5868 5868 5868 5868
5872 5873 5874 5874 5874 5873 5874 5873 5873 5874 5874 5874 5874 5875 5876 5876 5877 5876 5876 5877 5878 5878 5878 5879 5879 5879 5879 5879 5879 5879 5879 5878 5877 5876 5875 5874 5873 5872 5871 5870 5870 5869 5868 5867 5866 5866 5866 5866 5866
5870 5871 5872 5872 5872 5873 5873 5872 5872 5872 5873 5874 5874 5874 5875 5875 5875 5875 5875 5876 5877 5877 5878 5878 5879 5879 5879 5879 5879 5878 5878 5877 5876 5875 5874 5873 5872 5871 5870 5869 5868 5866 5866 5865 5864 5864 5864 5864 5864
5867 5869 5870 5871 5870 5871 5871 5871 5871 5871 5872 5873 5873 5873 5874 5874 5874 5874 5874 5875 5876 5877 5877 5878 5878 5878 5878 5878 5878 5877 5877 5876 5875 5874 5873 5871 5870 5869 5868 5867 5866 5864 5864 5863 5862 5862 5862 5862 5861
5865 5866 5868 5868 5868 5869 5869 5869 5870 5870 5871 5871 5872 5872 5872 5873 5873 5873 5874 5875 5875 5876 5877 5877 5878 5878 5878 5878 5877 5877 5876 5875 5874 5873 5871 5870 5869 5867 5866 5865 5864 5863 5862 5861 5860 5860 5859 5859 5859
5862 5864 5865 5865 5866 5867 5867 5868 5868 5869 5870 5870 5871 5871 5871 5872 5872 5872 5873 5874 5874 5876 5876 5877 5877 5877 5877 5877 5876 5876 5875 5874 5873 5872 5870 5869 5867 5866 5865 5863 5862 5861 5860 5859 5858 5857 5857 5857 5857
5860 5861 5862 5863 5864 5865 5865 5866 5867 5868 5868 5868 5869 5870 5870 5871 5871 5872 5872 5873 5874 5875 5876 5876 5877 5877 5877 5876 5876 5875 5874 5873 5872 5870 5869 5868 5866 5865 5863 5862 5860 5859 5858 5856 5856 5855 5854 5854 5854
5856 5858 5859 5860 5861 5863 5863 5864 5865 5866 5867 5867 5868 5869 5870 5870 5870 5871 5872 5873 5874 5874 5875 5876 5876 5876 5876 5875 5875 5874 5873 5872 5871 5869 5868 5866 5865 5863 5861 5860 5858 5857 5855 5854 5853 5852 5851 5851 5851
5853 5856 5856 5857 5859 5861 5862 5863 5864 5865 5865 5866 5867 5868 5869 5869 5870 5870 5872 5873 5873 5874 5875 5875 5875 5875 5875 5875 5874 5873 5872 5871 5870 5868 5867 5865 5863 5861 5859 5858 5856 5855 5853 5852 5851 5850 5849 5848 5848
5850 5852 5854 5855 5857 5859 5860 5861 5863 5863 5864 5865 5865 5866 5867 5868 5869 5870 5871 5872 5873 5873 5874 5874 5874 5874 5874 5874 5873 5872 5871 5870 5869 5867 5865 5863 5862 5860 5858 5856 5854 5852 5851 5849 5848 5847 5846 5845 5845
5847 5849 5851 5852 5854 5856 5858 5860 5861 5862 5863 5864 5864 5865 5866 5867 5868 5869 5870 5871 5872 5873 5873 5873 5874 5874 5873 5873 5872 5871 5870 5869 5867 5866 5864 5862 5860 5858 5856 5854 5852 5850 5848 5847 5845 5844 5843 5842 5842
5844 5846 5848 5850 5852 5854 5856 5858 5859 5860 5862 5863 5863 5864 5865 5866 5867 5868 5869 5870 5871 5872 5872 5873 5873 5873 5872 5871 5871 5870 5869 5867 5866 5864 5862 5861 5858 5856 5854 5852 5850 5848 5846 5844 5842 5841 5840 5839 5838
5841 5843 5846 5848 5850 5852 5854 5856 5857 5859 5860 5861 5862 5863 5864 5865 5866 5867 5868 5869 5870 5871 5871 5872 5872 5872 5871 5871 5870 5869 5867 5866 5865 5863 5861 5859 5857 5855 5852 5850 5847 5845 5843 5841 5839 5838 5836 5835 5835
5839 5840 5843 5845 5847 5850 5852 5854 5856 5857 5859 5860 5861 5862 5863 5864 5865 5866 5867 5868 5869 5870 5870 5871 5871 5870 5870 5870 5869 5868 5866 5865 5863 5861 5859 5857 5855 5853 5850 5848 5845 5843 5840 5838 5836 5834 5833 5832 5832
5837 5839 5841 5844 5846 5848 5851 5853 5854 5856 5857 5858 5860 5861 5862 5863 5864 5865 5867 5868 5869 5869 5870 5870 5869 5869 5869 5869 5868 5866 5865 5864 5862 5860 5858 5856 5854 5851 5848 5846 5843 5840 5838 5835 5833 5831 5830 5829 5829
5835 5838 5840 5842 5844 5846 5850 5851 5852 5853 5855 5857 5858 5860 5861 5863 5864 5865 5866 5867 5868 5868 5869 5869 5869 5869 5868 5868 5867 5865 5864 5862 5861 5859 5857 5854 5852 5849 5847 5844 5841 5838 5836 5833 5831 5829 5827 5826 5826
5833 5836 5838 5841 5842 5845 5848 5849 5851 5852 5854 5855 5857 5858 5860 5862 5863 5864 5865 5866 5867 5867 5868 5868 5868 5868 5867 5867 5866 5864 5863 5861 5859 5857 5855 5853 5850 5848 5845 5842 5839 5836 5834 5831 5829 5827 5825 5823 5823
5832 5834 5836 5838 5841 5843 5845 5847 5849 5850 5852 5854 5855 5857 5859 5861 5862 5863 5864 5865 5866 5867 5867 5867 5867 5867 5867 5866 5865 5863 5862 5860 5858 5856 5854 5851 5849 5846 5843 5840 5837 5835 5832 5829 5827 5824 5822 5821 5820
5831 5833 5835 5837 5839 5842 5844 5846 5848 5849 5851 5852 5854 5856 5857 5860 5861 5862 5863 5864 5865 5866 5866 5866 5866 5866 5865 5864 5863 5862 5861 5859 5857 5855 5853 5850 5848 5845 5842 5839 5836 5833 5830 5828 5825 5822 5820 5819 5818
5830 5833 5835 5837 5838 5841 5843 5845 5847 5848 5850 5852 5853 5855 5857 5859 5860 5861 5862 5863 5864 5864 5865 5865 5865 5865 5864 5863 5862 5861 5860 5858 5856 5854 5852 5849 5847 5844 5841 5838 5835 5832 5829 5826 5823 5821 5819 5817 5816
5830 5833 5835 5836 5838 5840 5842 5844 5846 5848 5849 5850 5852 5854 5856 5858 5859 5860 5861 5862 5863 5863 5864 5864 5864 5863 5863 5862 5861 5860 5859 5857 5855 5853 5851 5848 5846 5843 5840 5837 5834 5831 5828 5825 5822 5819 5817 5816 5815
5830 5832 5834 5836 5838 5840 5842 5844 5845 5846 5848 5850 5852 5853 5855 5857 5858 5859 5860 5861 5862 5862 5862 5862 5862 5862 5862 5861 5860 5859 5857 5856 5854 5852 5850 5848 5845 5842 5839 5836 5833 5830 5827 5824 5822 5819 5817 5815 5814
5829 5831 5834 5836 5838 5840 5842 5844 5846 5846 5847 5849 5851 5853 5854 5856 5857 5859 5860 5860 5861 5861 5861 5862 5862 5861 5861 5860 5859 5858 5856 5855 5853 5851 5849 5846 5844 5841 5838 5835 5833 5830 5827 5824 5821 5819 5817 5815 5814
5830 5832 5834 5836 5838 5840 5842 5844 5845 5846 5847 5849 5850 5852 5853 5855 5856 5858 5859 5859 5860 5860 5861 5861 5861 5860 5859 5858 5857 5856 5855 5854 5852 5850 5848 5845 5843 5840 5838 5835 5832 5829 5827 5824 5821 5819 5817 5815 5814
5831 5833 5835 5836 5838 5840 5842 5843 5845 5846 5847 5848 5850 5851 5852 5854 5855 5857 5858 5858 5859 5859 5860 5860 5860 5859 5858 5857 5856 5855 5854 5852 5850 5848 5846 5844 5842 5839 5837 5834 5831 5829 5826 5824 5821 5819 5817 5815 5813
5831 5834 5837 5838 5839 5840 5841 5842 5845 5845 5847 5848 5849 5850 5852 5853 5854 5855 5856 5857 5858 5858 5858 5858 5858 5857 5856 5856 5854 5853 5852 5851 5849 5847 5845 5843 5841 5838 5836 5833 5831 5828 5826 5824 5821 5819 5817 5815 5813
5832 5834 5836 5838 5838 5840 5841 5842 5844 5845 5846 5848 5849 5850 5851 5852 5853 5854 5855 5856 5857 5857 5857 5857 5857 5856 5855 5854 5853 5852 5850 5849 5847 5845 5843 5841 5839 5837 5835 5833 5830 5828 5825 5823 5821 5819 5816 5814 5813
5833 5834 5836 5838 5838 5839 5841 5842 5844 5845 5846 5847 5848 5849 5850 5852 5853 5853 5854 5855 5855 5855 5855 5855 5855 5854 5853 5852 5851 5850 5849 5847 5845 5844 5842 5840 5838 5836 5833 5831 5829 5827 5825 5822 5820 5818 5816 5814 5812
5834 5835 5835 5837 5838 5840 5840 5844 5843 5844 5845 5846 5847 5848 5850 5851 5852 5852 5853 5853 5854 5854 5854 5853 5853 5852 5851 5850 5849 5848 5847 5845 5843 5842 5840 5838 5836 5834 5832 5830 5828 5826 5824 5821 5819 5817 5815 5813 5811
5834 5835 5836 5838 5838 5839 5841 5845 5843 5844 5845 5845 5847 5848 5849 5850 5851 5851 5852 5852 5852 5852 5852 5852 5851 5850 5849 5848 5847 5846 5844 5843 5841 5839 5838 5836 5834 5832 5830 5828 5826 5824 5822 5820 5818 5816 5813 5811 5810
Wind_Speed
8 6 5 4 4 4 3 2 3 3 3 3 3 4 4 4 3 4 5 4 4 3 3 2 1 1 2 2 3 3 4 5 5 7 8 8 8 8 9 10 10 9 9 9 9 10 11 11 11
10 8 7 6 5 5 4 4 3 3 4 3 3 4 4 4 4 4 6 5 4 3 3 2 1 1 2 2 3 3 4 5 6 7 8 8 8 8 9 10 10 10 10 10 10 10 11 11 11
11 10 8 7 7 7 6 5 5 4 3 3 3 3 4 3 4 5 6 5 4 3 3 2 2 1 1 2 3 4 4 5 6 7 8 8 8 8 9 9 9 9 9 9 10 10 10 11 11
13 12 10 9 9 8 7 6 5 4 3 3 4 4 4 4 5 6 5 5 4 3 3 2 1 1 1 2 3 4 5 6 7 7 7 8 8 8 8 9 9 9 9 10 10 11 11 11 11
14 13 12 11 10 9 7 6 4 4 3 3 3 4 4 4 5 6 5 5 4 3 3 2 1 1 2 3 4 5 5 6 6 7 7 8 8 8 9 9 9 9 9 9 10 11 11 12 12
15 14 14 13 12 9 8 6 5 5 4 4 5 4 4 5 5 5 4 4 4 3 3 2 2 2 2 3 4 5 5 5 6 6 6 7 8 8 9 10 9 9 9 10 10 11 12 12 12
16 15 15 15 13 11 10 8 6 5 6 5 5 4 5 5 5 5 4 4 3 3 3 2 2 2 2 3 3 4 5 5 6 6 7 7 8 9 9 10 10 10 10 10 11 11 12 12 13
17 17 16 15 14 12 11 8 7 6 5 5 5 4 5 6 6 5 5 5 5 4 3 2 2 2 2 3 3 4 5 6 6 7 8 8 8 9 10 10 10 10 10 11 11 11 11 12 12
18 18 17 16 15 13 11 9 7 6 6 5 5 5 6 6 6 6 6 5 5 4 3 3 2 2 2 3 3 4 5 6 6 7 8 8 9 10 11 11 11 11 11 11 11 11 11 11 11
17 17 17 17 15 13 11 10 8 6 6 6 6 6 6 6 6 6 6 6 5 4 3 3 2 2 3 3 4 4 5 6 7 7 8 9 10 10 11 11 11 11 11 11 11 11 11 11 11
17 17 16 15 13 12 10 9 8 7 6 6 5 5 6 6 6 7 7 7 5 4 4 3 2 2 3 3 3 5 5 6 7 8 9 9 10 10 11 11 12 11 11 12 12 12 11 12 11
18 18 16 14 13 11 10 8 9 8 7 6 6 6 5 6 7 7 7 7 6 5 4 3 2 2 2 3 4 5 6 7 7 8 8 9 10 10 11 12 12 12 12 12 12 12 12 12 12
17 17 16 13 12 11 9 8 8 8 8 7 7 6 6 6 6 7 7 6 6 5 4 2 2 1 1 2 4 5 6 6 7 8 8 9 10 11 11 12 12 13 13 13 12 12 12 11 11
18 16 15 13 12 11 10 8 8 8 8 8 7 6 6 6 7 7 7 6 5 4 3 1 1 0 2 3 4 5 5 6 7 7 8 9 11 12 13 13 13 13 13 13 13 12 12 11 10
16 15 13 13 13 12 11 9 9 9 8 8 8 7 7 7 7 8 7 6 5 4 2 1 1 1 2 2 3 4 5 6 7 7 8 10 11 13 14 14 14 14 13 13 12 12 11 10 10
15 14 13 13 13 13 11 9 9 9 8 8 8 8 7 7 7 8 8 7 5 4 3 2 1 1 2 2 3 5 6 6 7 8 9 11 12 13 14 14 15 14 13 13 12 11 11 10 10
14 13 13 13 13 12 12 10 10 10 10 9 8 8 8 8 8 8 8 7 5 3 2 2 1 1 2 3 4 5 6 7 8 9 10 11 12 13 14 15 15 14 14 13 13 12 11 10 9
13 13 13 13 13 12 11 11 11 10 10 9 9 8 9 9 9 9 8 7 5 4 3 2 1 1 2 3 4 5 6 7 9 10 11 12 13 13 14 15 15 14 14 14 13 12 11 10 9
13 13 12 11 13 12 12 11 11 10 10 10 9 9 9 9 10 9 9 7 5 4 3 2 1 2 2 3 4 5 7 8 9 10 11 12 13 14 14 15 15 14 14 14 13 12 11 9 8
13 13 12 12 13 12 12 11 11 11 11 10 10 10 9 9 9 9 9 8 6 5 3 2 2 2 3 4 5 6 7 8 9 10 11 12 13 14 14 14 15 15 15 14 13 12 10 9 7
12 12 13 12 12 12 11 11 11 11 11 11 11 10 10 9 9 9 8 7 6 5 3 3 2 2 3 4 5 6 7 8 9 10 11 12 13 14 14 14 15 14 14 14 13 12 10 8 7
13 13 12 12 12 11 11 11 11 11 10 10 11 11 10 9 8 8 7 6 5 4 3 2 2 3 4 4 5 6 7 8 9 10 11 12 12 13 14 15 15 14 14 13 13 12 10 9 7
13 14 13 12 12 11 11 10 10 10 10 10 11 11 10 9 8 7 6 5 5 4 3 2 2 3 4 4 5 6 7 8 9 10 11 11 12 13 14 14 14 14 14 13 12 12 11 9 7
13 14 15 14 12 11 10 10 10 9 9 9 10 10 9 9 8 7 6 5 5 4 3 3 3 4 4 5 6 6 7 8 9 10 10 11 12 13 13 13 14 14 14 13 12 12 11 9 8
13 13 14 14 12 10 10 9 9 9 9 9 9 9 9 9 8 8 6 5 5 4 4 3 4 4 5 6 6 7 7 8 9 10 10 11 12 12 13 13 13 13 13 13 12 12 11 10 8
13 12 12 11 11 10 9 9 9 9 8 8 8 8 8 8 8 7 6 6 5 4 4 4 4 5 5 6 7 7 8 9 9 10 10 11 12 12 12 12 12 13 12 12 12 12 11 10 9
13 13 12 10 10 9 8 9 10 9 8 8 7 7 7 6 6 6 6 5 5 4 4 4 5 5 6 6 7 7 8 9 9 10 10 11 12 12 12 12 12 12 12 12 12 12 12 11 10
12 12 12 11 10 9 9 9 8 7 6 6 6 6 6 5 6 5 5 5 5 5 5 5 5 5 6 6 7 8 8 9 10 10 11 11 12 12 12 12 12 12 12 12 12 12 12 11 10
11 11 11 11 9 8 7 8 8 7 6 5 5 5 5 5 6 5 5 5 5 5 5 5 6 6 6 7 8 9 10 10 10 11 11 12 12 12 13 12 12 12 12 13 13 13 12 12 11
11 10 9 9 8 7 7 7 6 6 5 5 5 4 4 5 5 5 5 6 6 5 5 6 6 7 7 8 9 9 10 10 10 11 12 12 13 13 13 13 13 13 13 13 13 13 13 13 12
Wind_Direction
248 248 250 250 257 262 266 264 233 224 217 221 227 233 238 235 240 233 223 214 219 199 176 180 201 285 310 317 314 313 311 308 309 309 307 304 300 298 295 292 287 281 278 272 269 268 265 262 261
239 241 245 246 248 260 266 270 259 253 231 228 241 237 233 234 230 229 216 210 206 194 176 191 244 294 308 316 315 313 312 316 316 313 312 309 304 302 301 296 290 283 277 273 270 269 267 263 260
236 238 241 244 244 249 256 259 262 258 243 229 238 236 236 229 222 216 215 207 210 202 187 209 250 285 312 322 318 319 320 321 320 319 317 313 309 308 305 299 295 287 279 276 274 270 269 265 262
234 235 238 242 243 250 252 257 255 243 238 243 245 248 242 231 222 213 214 205 210 203 194 207 233 269 299 318 318 319 323 324 324 323 322 321 318 313 308 305 302 295 285 279 277 274 271 268 263
231 231 234 238 244 246 250 257 247 238 246 243 247 251 239 228 218 205 204 210 193 188 199 205 220 269 308 324 330 326 321 323 329 329 326 324 323 320 315 311 306 300 293 286 280 276 275 270 265
227 229 233 235 238 238 239 239 240 242 247 244 239 235 227 227 220 201 201 206 184 178 186 187 226 284 309 316 326 330 327 327 330 330 331 331 330 327 323 317 311 305 298 293 287 281 276 271 266
228 228 231 233 234 235 234 235 231 228 235 237 229 225 220 220 224 211 200 192 178 182 190 198 239 280 301 316 331 339 334 331 334 334 333 331 330 327 325 322 317 311 304 299 294 288 281 275 269
228 229 229 233 234 233 231 226 229 226 229 230 231 218 212 210 211 203 190 188 184 185 194 208 239 273 298 320 334 335 335 335 336 334 332 330 329 327 325 323 319 313 307 302 297 292 287 282 275
228 229 231 236 238 236 236 235 229 220 230 230 228 220 218 210 202 197 195 194 189 183 192 211 240 260 297 312 324 331 336 338 337 335 334 334 331 328 326 325 320 315 310 304 299 294 289 286 279
226 229 231 233 238 234 235 232 227 225 224 225 227 218 209 206 200 202 197 194 191 190 203 218 226 266 291 311 325 329 335 337 335 336 337 335 329 326 327 326 323 318 314 308 302 297 290 284 280
226 230 231 230 233 228 229 229 225 222 227 224 210 195 200 203 202 200 200 195 192 194 197 205 219 266 291 312 323 327 331 335 334 337 339 335 332 332 329 326 325 320 315 309 304 299 292 285 280
225 229 229 227 232 227 227 224 223 218 219 218 200 189 186 194 195 193 193 191 189 186 186 198 211 247 287 307 320 328 330 334 333 336 338 338 339 339 334 329 325 322 318 313 306 301 295 288 280
221 222 224 225 226 223 226 228 222 214 216 214 201 192 194 192 189 185 187 186 189 187 190 199 195 225 313 311 323 327 327 329 330 336 341 344 344 342 339 334 332 328 323 317 310 304 297 291 284
218 220 224 216 217 221 220 222 218 212 210 210 206 203 200 194 184 179 175 176 176 177 178 175 195 8 346 328 329 328 331 335 335 339 345 347 346 344 342 339 336 332 328 323 317 309 301 293 285
215 215 214 212 212 214 212 211 208 208 206 205 202 199 192 186 182 179 176 172 173 172 173 170 135 18 335 329 336 337 338 337 342 344 346 346 344 343 342 340 338 335 332 329 323 315 306 297 286
210 211 213 209 202 202 203 207 203 201 198 200 204 199 188 181 181 179 180 176 176 174 175 176 172 348 332 331 335 340 343 344 347 347 346 345 344 344 344 342 340 338 336 333 328 320 312 301 289
202 204 204 199 196 197 197 197 196 196 195 197 199 199 189 182 183 185 182 180 185 183 180 185 198 329 331 329 333 340 342 345 348 348 348 347 346 346 346 345 344 341 338 336 332 326 317 307 292
193 193 191 191 188 188 191 190 192 195 196 197 197 194 187 185 184 182 181 182 186 187 196 205 239 296 313 323 332 339 344 347 350 349 349 348 346 347 347 347 346 344 340 337 335 332 324 314 299
184 183 180 179 180 179 183 187 188 187 189 187 187 182 183 185 184 185 184 182 183 190 192 196 255 292 309 328 338 344 345 347 349 349 348 348 348 349 349 348 347 345 342 339 337 335 331 323 311
178 178 177 176 174 177 176 177 181 179 182 184 184 182 182 183 187 188 189 187 188 192 194 217 259 294 315 330 338 341 341 344 346 346 347 348 350 352 351 350 348 347 346 343 341 338 335 330 321
169 171 175 175 170 167 165 172 178 179 177 177 180 180 180 181 185 189 193 191 192 193 203 230 257 297 314 325 331 334 336 340 343 343 345 347 348 351 352 350 349 349 349 348 347 347 342 336 329
167 167 169 171 168 163 165 165 171 173 170 168 172 177 178 180 182 188 190 190 195 193 213 242 272 299 309 320 327 330 333 337 341 344 344 344 346 349 352 352 351 352 352 353 353 353 351 347 340
162 167 164 163 164 165 163 161 161 161 161 163 167 170 173 177 181 186 191 195 193 200 215 237 276 295 303 317 322 327 331 334 338 342 342 342 344 347 350 352 353 353 354 355 355 357 358 356 351
163 160 159 158 158 157 160 163 158 152 153 155 159 164 167 172 182 188 194 200 196 203 216 236 272 290 302 314 319 321 326 330 333 337 340 341 342 343 346 350 353 354 355 356 357 358 359 357 354
159 159 159 160 158 159 161 164 156 155 154 154 158 163 165 172 183 190 199 203 204 218 230 251 276 288 300 311 316 320 324 328 332 335 337 339 340 341 343 346 350 354 355 356 356 357 356 354 351
162 162 165 165 160 158 160 160 160 156 155 155 156 165 172 181 188 194 200 201 212 229 245 263 276 287 298 307 314 318 322 325 329 333 334 337 339 340 341 344 347 350 352 354 355 355 353 352 349
166 170 170 169 165 164 162 158 157 150 149 147 154 165 174 180 189 197 198 204 219 236 253 271 281 292 300 305 313 317 320 324 327 330 331 334 337 339 340 341 343 344 347 350 352 352 350 348 346
167 171 177 175 169 167 163 160 153 148 152 155 161 171 175 183 195 198 199 217 233 245 257 273 288 296 300 306 311 312 314 318 321 323 327 330 332 335 336 337 340 340 342 345 347 348 347 344 342
163 170 179 177 176 174 169 164 164 157 157 165 172 175 180 191 204 207 214 229 244 253 262 272 284 294 300 305 309 311 312 315 317 318 321 325 327 329 331 332 332 334 336 338 339 340 341 340 337
175 175 175 177 176 179 182 176 177 172 168 170 175 185 195 203 212 220 235 244 252 258 266 274 283 291 299 305 308 311 311 313 316 317 319 321 322 323 324 325 325 326 328 329 330 333 333 331 329